P/2019 LD2 ( ATLAS )

Japanese version
Home page
Updated on December 1, 2021

---------------------------------------------------------------------

* Profile

Discovery Date June 10, 2019
Magnitude 18.4 mag
Discoverer Asteroid Terrestrial-Impact Last Alert System (ATLAS) search program

* Pictures

* Orbital Elements

Epoch 2020 Apr. 21.0 TT = JDT 2458960.5
T 2020 Apr. 10.58898 TT                                 Rudenko
q   4.5780354            (2000.0)            P               Q
n   0.08082602     Peri.  123.42348     +0.54772163     +0.83666029
a   5.2978776      Node   179.78298     -0.81861528     +0.53609516
e   0.1358737      Incl.   11.54635     -0.17282953     +0.11225656
P  12.2
From 380 observations 2018 May 9-2021 Sept. 1, mean residual 0".8.

* Magnitudes Graph

        m1 = 1.7 + 5 log d + 20.0 log r

---------------------------------------------------------------------

The orbital elements are published on M.P.E.C. 2021-R75.
The magnitudes graphs are made with Comet for Windows.

---------------------------------------------------------------------

Copyright(C) Seiichi Yoshida (comet@aerith.net). All rights reserved.